{"data":{"norad_id":32487,"intl_designator":"2008-006A","name":"THOR 5","alt_names":[],"object_type":"PAYLOAD","status":"ACTIVE","operator":null,"country":"NOR","launch_date":"2008-02-11","launch_site_code":"TYMSC","launch_vehicle":null,"mission":null,"orbit_class":"UNKNOWN","rcs_meters":31.6228,"size_class":null,"mass_kg":null,"dimensions":null,"purposes":["comms"],"wikipedia_slug":null,"has_3d_model":false,"image_url":null,"decayed_at":null,"tle_current":{"epoch":"2026-09-19T22:05:59.311968Z","epoch_age_seconds":64423,"freshness":"FRESH","line1":"1 32487U 08006A   26262.92082537 -.00000013  00000+0  00000+0 0  9995","line2":"2 32487   0.0224 226.8132 0002375 307.3688 155.3906  1.00272073 68263","mean_motion":1.00272073,"eccentricity":0.0002375,"inclination_deg":0.0224,"raan_deg":226.8132,"arg_perigee_deg":307.3688,"mean_anomaly_deg":155.3906,"bstar":0,"rev_number":6826,"period_min":1436.0927792926,"perigee_km":35776.500119863,"apogee_km":35796.528329195,"semimajor_km":42164.651224529,"source":"CELESTRAK","updated_at":"2026-09-20T09:00:35.131099Z"}}}